Showing default

TELSTAR 14R, 37602

Orbit data source: Space-Track

TELSTAR 14R, 37602 is a payload satellite owned by Telesat Brasil (CA) in GEO that was launched on Fri, 20 May 2011 UTC via a PROTON-M/BRIZ-M launch vehicle from the Tyuratam Missile And Space Complex (TTMTR). Payload-class satellites include a variety of spacecraft equipped with specific instruments for various scientific and technological missions. These include communications satellites like Starlink; space stations such as the ISS; scientific satellites like the Hubble; Earth observation satellites from companies like Planet Labs, Umbra, and HawkEye 360; GPS; miniature CubeSats for education and research; and military/defense satellites.

Loading next visibility...
Identifier
37602, 2011-021A
Orbit
GEO
Country
Flag of CACA
Related business
Manufacturer
SS/Loral
Mission
Operational Commercial Communications
Bus & Motor
SSL-1300, R-4D-15-300
Mass
4,970 kg wet, 2,150 kg dry
Launch date (UTC)
2011-05-20 (15 years ago)
Launch vehicle
PROTON-M/BRIZ-M
Launch site
Tyuratam Missile And Space Complex (TTMTR)
Object type
Payload
Rocket body
Debris
Shape & HBR
Box + 2 Pan, 13.3 m
Radar Cross Section
28.987 m², Large (>1 m²)

Expand to show TLE details & history
Last TLE update: 2 days ago

TLE from 2 days ago
0 TELSTAR 14R
1 37602U 11021A   26171.09438221 -.00000285  00000-0  00000-0 0  9995
2 37602   0.0256  68.3391 0002285 351.2791 179.6656  1.00271568 55862
Epoch: 2026-06-20T02:15Z
TLE epoch observation values (Epoch: 2026-06-20T02:15:54.622Z)
Latitude
-0.00875°
Longitude
-62.99493°
Altitude
35,795.801 km
Speed
3.074 km/s
True Right ascension
15h 57m 11s
True Declination
0° 00' 31"
Sunlit
Object was in daylight at epoch
Visualization orbit readout
Latitude
Unknown
Longitude
Unknown
Altitude
Unknown
Speed
Unknown
Apparent Right ascension
Unknown
Apparent Declination
Unknown
Sunlit
N/A
Visualization observer readout
Local Sidereal Time
23:08:31
Azimuth
Unknown
Elevation
Unknown
Doppler factor
Unknown
Orbital elements
Apogee altitude
35,797.361 km
Perigee altitude
35,778.091 km
Semi-major axis
42,165.863 km
Eccentricity
0.00023
Inclination
0.0256°
RAAN
68.3391°
Arg. of periapsis
351.2791°
True anomaly
179.66575°
Mean anomaly
179.6656°
Eccentric anomaly
179.66568°
Mean motion
0.25067 °/min
Orbital period
1,436.15 mins
BSTAR
0
Loading maneuver chart data...
Computing Atmospheric mass density...
Loading historical data...
Loading historical data...
Loading historical data...
Loading historical data...
Loading historical data...
Loading historical data...
Loading historical data...
Other satellites on launch #21 in the year 2011 (2011-05-20 UTC)

Documentation

Showing up to 5 results
|